Phillips, WI

8:19 PM CST on February 09, 2016 (GMT -0600)
Price County

Weather History for KPBH - November, 2014

Change the Weather History Date:

Monday, November 3, 2014

  Actual Average Record
Temperature  
Mean Temperature 42 °F -  
Max Temperature 48 °F 43 °F 71 °F (2008)
Min Temperature 35 °F 28 °F 14 °F (2006)
Degree Days  
Heating Degree Days 24    
Moisture  
Dew Point 33 °F    
Average Humidity 71    
Maximum Humidity 100    
Minimum Humidity 51    
Precipitation  
Precipitation 0.16 in - - ()
Sea Level Pressure  
Sea Level Pressure 29.84 in    
Wind  
Wind Speed 7 mph (South)    
Max Wind Speed 12 mph    
Max Gust Speed 17 mph    
Visibility 9 miles    
Events Rain    
Averages and records for this station are not official NWS values.
T = Trace of Precipitation, MM = Missing Value Source: NWS Daily Summary

Daily Weather History Graph

Daily Weather History Graph

Search for Another Location

Airport or City:

Trip Planner

Search our weather history database for the weather conditions in past years. The results will help you decide how hot, cold, wet, or windy it might be!

Date:

Astronomy

Nov. 03, 2014 Rise Set
Actual Time 6:44 AM CST 4:45 PM CST
Civil Twilight 6:13 AM CST 5:16 PM CST
Nautical Twilight 5:37 AM CST 5:51 PM CST
Astronomical Twilight 5:03 AM CST 6:26 PM CST
Moon 3:04 PM CST (11/3) 2:43 AM CST (11/3)
Length of Visible Light 11h 03m
Length of Day
10h 00m
Waxing Gibbous, 87% of the Moon is Illuminated
Nov 3
Waxing Gibbous
Nov 6
Full
Nov 14
Last Quarter
Nov 22
New
Nov 29
First Quarter

Hourly Weather History & Observations

Time (CST) Temp. Windchill Dew Point Humidity Pressure Visibility Wind Dir Wind Speed Gust Speed Precip Events Conditions
12:15 AM 38.8 °F 35.4 °F 22.3 °F 51% 29.96 in 10.0 mi South 4.6 mph - N/A   Clear
12:35 AM 38.3 °F 33.9 °F 22.5 °F 53% 29.96 in 10.0 mi South 5.8 mph - N/A   Clear
12:55 AM 38.3 °F 33.9 °F 22.6 °F 53% 29.95 in 10.0 mi South 5.8 mph - N/A   Clear
1:15 AM 38.5 °F 33.4 °F 22.6 °F 53% 29.94 in 10.0 mi South 6.9 mph - N/A   Clear
1:35 AM 38.3 °F 33.2 °F 22.8 °F 54% 29.93 in 10.0 mi South 6.9 mph - N/A   Clear
1:55 AM 38.7 °F 34.3 °F 23.0 °F 53% 29.93 in 10.0 mi South 5.8 mph - N/A   Clear
2:15 AM 38.8 °F 34.6 °F 23.0 °F 53% 29.93 in 10.0 mi South 5.8 mph - N/A   Clear
2:35 AM 38.7 °F 33.6 °F 23.4 °F 54% 29.92 in 10.0 mi South 6.9 mph - N/A   Clear
2:55 AM 38.7 °F 32.9 °F 23.5 °F 55% 29.92 in 10.0 mi South 8.1 mph - N/A   Clear
3:15 AM 38.3 °F 33.2 °F 23.7 °F 56% 29.92 in 10.0 mi South 6.9 mph - N/A   Clear
3:35 AM 38.1 °F 33.7 °F 23.9 °F 57% 29.92 in 10.0 mi South 5.8 mph - N/A   Clear
3:55 AM 38.3 °F 33.2 °F 23.9 °F 56% 29.91 in 10.0 mi SSE 6.9 mph - N/A   Clear
4:15 AM 37.9 °F 32.7 °F 24.3 °F 58% 29.92 in 10.0 mi South 6.9 mph - N/A   Clear
4:35 AM 37.6 °F 33.1 °F 24.3 °F 59% 29.91 in 10.0 mi SSE 5.8 mph - N/A   Clear
4:55 AM 37.4 °F 32.1 °F 24.4 °F 60% 29.91 in 10.0 mi SSE 6.9 mph - N/A   Clear
5:15 AM 37.2 °F 31.9 °F 24.6 °F 60% 29.91 in 10.0 mi SSE 6.9 mph - N/A   Clear
5:35 AM 36.7 °F 32.9 °F 24.8 °F 62% 29.91 in 10.0 mi SSE 4.6 mph - N/A   Clear
5:55 AM 36.0 °F 33.3 °F 24.8 °F 64% 29.91 in 10.0 mi SSE 3.5 mph - N/A   Clear
6:15 AM 35.8 °F 31.9 °F 24.8 °F 64% 29.90 in 10.0 mi SSE 4.6 mph - N/A   Clear
6:35 AM 35.8 °F 33.0 °F 25.2 °F 65% 29.89 in 10.0 mi SE 3.5 mph - N/A   Clear
6:55 AM 36.0 °F 32.1 °F 25.5 °F 66% 29.89 in 10.0 mi SSE 4.6 mph - N/A   Clear
7:15 AM 36.7 °F 32.0 °F 25.5 °F 64% 29.89 in 10.0 mi SSE 5.8 mph - N/A   Clear
7:35 AM 37.2 °F 31.9 °F 25.9 °F 64% 29.89 in 10.0 mi SSE 6.9 mph - N/A   Clear
7:55 AM 37.8 °F 33.3 °F 26.2 °F 63% 29.89 in 10.0 mi South 5.8 mph - N/A   Clear
8:15 AM 39.6 °F 34.7 °F 27.1 °F 61% 29.88 in 10.0 mi South 6.9 mph - N/A   Clear
8:35 AM 39.7 °F 34.3 °F 27.3 °F 61% 29.88 in 10.0 mi South 8.1 mph - N/A   Clear
8:55 AM 41.2 °F 35.5 °F 27.7 °F 59% 29.89 in 10.0 mi SSW 9.2 mph - N/A   Clear
9:15 AM 42.3 °F 36.8 °F 28.4 °F 58% 29.88 in 10.0 mi South 9.2 mph 16.1 mph N/A   Clear
9:35 AM 42.1 °F 37.1 °F 28.6 °F 59% 29.87 in 10.0 mi South 8.1 mph - N/A   Clear
9:55 AM 44.8 °F 39.4 °F 29.8 °F 56% 29.87 in 10.0 mi South 10.4 mph - N/A   Clear
10:15 AM 45.7 °F 40.2 °F 30.6 °F 56% 29.87 in 10.0 mi South 11.5 mph 17.3 mph N/A   Clear
10:35 AM 46.8 °F - 31.8 °F 56% 29.86 in 10.0 mi SSW 8.1 mph 16.1 mph N/A   Clear
10:55 AM 46.4 °F 41.9 °F 32.0 °F 57% 29.87 in 10.0 mi SSW 9.2 mph 17.3 mph N/A   Clear
11:15 AM 46.8 °F - 32.4 °F 57% 29.86 in 10.0 mi South 8.1 mph - N/A   Clear
11:35 AM 46.4 °F 42.4 °F 32.7 °F 59% 29.84 in 10.0 mi SSW 8.1 mph - N/A   Clear
11:55 AM 46.8 °F - 33.3 °F 59% 29.84 in 10.0 mi SSW 9.2 mph - N/A   Scattered Clouds
12:20 PM 46.6 °F - 33.6 °F 61% 29.83 in 10.0 mi SW 8.1 mph - N/A   Mostly Cloudy
12:35 PM 46.6 °F - 33.8 °F 61% 29.83 in 10.0 mi SSW 11.5 mph - N/A   Overcast
12:55 PM 47.3 °F - 34.7 °F 62% 29.82 in 10.0 mi South 10.4 mph - N/A   Overcast
1:15 PM 48.0 °F - 35.4 °F 62% 29.80 in 10.0 mi South 8.1 mph - N/A   Overcast
1:35 PM 48.2 °F - 35.8 °F 62% 29.80 in 10.0 mi South 6.9 mph - N/A   Overcast
1:55 PM 48.4 °F - 35.8 °F 62% 29.80 in 10.0 mi SSW 8.1 mph - N/A   Overcast
2:15 PM 48.2 °F - 35.8 °F 62% 29.80 in 10.0 mi South 11.5 mph - N/A   Overcast
2:35 PM 46.6 °F - 37.8 °F 71% 29.80 in 10.0 mi SSW 8.1 mph - N/A Rain Light Rain
2:55 PM 46.8 °F - 38.1 °F 72% 29.80 in 10.0 mi South 8.1 mph - N/A Rain Light Rain
3:15 PM 46.8 °F - 37.4 °F 70% 29.81 in 10.0 mi South 11.5 mph - N/A   Overcast
3:35 PM 45.1 °F 40.8 °F 37.4 °F 74% 29.79 in 10.0 mi South 8.1 mph - N/A   Light Drizzle
3:55 PM 44.8 °F 40.4 °F 37.9 °F 77% 29.81 in 10.0 mi South 8.1 mph - N/A Rain Light Rain
4:15 PM 43.9 °F 39.9 °F 39.2 °F 84% 29.81 in 10.0 mi South 6.9 mph - N/A   Overcast
4:35 PM 43.7 °F 40.3 °F 39.2 °F 84% 29.81 in 10.0 mi South 5.8 mph - N/A   Overcast
4:55 PM 43.7 °F 39.7 °F 39.2 °F 84% 29.81 in 10.0 mi South 6.9 mph - N/A   Overcast
5:15 PM 43.9 °F 39.3 °F 39.2 °F 84% 29.81 in 10.0 mi South 8.1 mph - N/A   Overcast
5:35 PM 44.6 °F 40.7 °F 39.4 °F 82% 29.82 in 10.0 mi South 6.9 mph - N/A   Overcast
5:55 PM 44.6 °F 39.7 °F 39.7 °F 83% 29.82 in 10.0 mi South 9.2 mph - N/A   Overcast
6:15 PM 44.6 °F 39.7 °F 40.1 °F 84% 29.82 in 10.0 mi South 9.2 mph - N/A   Overcast
6:35 PM 45.0 °F 40.6 °F 40.6 °F 85% 29.81 in 10.0 mi SSW 8.1 mph - N/A   Overcast
6:55 PM 45.0 °F 40.1 °F 41.5 °F 88% 29.81 in 10.0 mi SSW 9.2 mph - N/A   Overcast
7:15 PM 45.0 °F 40.6 °F 42.4 °F 91% 29.80 in 10.0 mi SSW 8.1 mph - N/A   Overcast
7:35 PM 45.0 °F 40.6 °F 42.8 °F 92% 29.79 in 10.0 mi SSW 8.1 mph - N/A   Overcast
7:55 PM 45.1 °F 40.8 °F 42.4 °F 90% 29.78 in 7.0 mi SSW 8.1 mph - N/A   Overcast
8:15 PM 44.6 °F 41.4 °F 42.8 °F 93% 29.77 in 5.0 mi SSW 5.8 mph - N/A   Overcast
8:35 PM 44.2 °F 41.0 °F 43.0 °F 95% 29.77 in 7.0 mi South 5.8 mph - N/A   Overcast
8:55 PM 44.2 °F 40.3 °F 43.3 °F 97% 29.77 in 4.0 mi South 6.9 mph - N/A   Overcast
9:15 PM 44.2 °F 41.0 °F 43.7 °F 98% 29.77 in 3.0 mi SSW 5.8 mph - N/A   Drizzle
9:35 PM 44.6 °F 40.7 °F 44.4 °F 99% 29.76 in 3.0 mi SSW 6.9 mph - N/A Rain Rain
9:55 PM 45.0 °F 41.8 °F 44.6 °F 99% 29.75 in 5.0 mi SSW 5.8 mph - 0.05 in Rain Rain
10:15 PM 45.0 °F 40.6 °F 44.6 °F 99% 29.74 in 7.0 mi South 8.1 mph - 0.01 in Rain Light Rain
10:35 PM 45.1 °F 42.0 °F 44.6 °F 98% 29.74 in 7.0 mi SSW 5.8 mph - 0.05 in Rain Rain
10:55 PM 45.0 °F 42.6 °F 44.6 °F 99% 29.73 in 7.0 mi SSW 4.6 mph - 0.07 in Rain Light Rain
11:15 PM 45.1 °F 42.0 °F 44.8 °F 99% 29.72 in 7.0 mi SW 5.8 mph - N/A   Light Drizzle
11:35 PM 45.5 °F 42.5 °F 45.3 °F 99% 29.72 in 4.0 mi SW 5.8 mph - 0.01 in Rain Heavy Rain
11:55 PM 45.5 °F 44.2 °F 45.5 °F 100% 29.71 in 3.0 mi SW 3.5 mph - 0.04 in Rain Rain